When you browse on this site, cookies collect data to enhance your experience and personalize the content and advertising you see.
Visit our Privacy Policy to learn more. By continuing to use the site, you agree to this use of cookies and data.
  • In Switzerland
  • List of Countries
  • For 7 days
  • Water Temperature
  • Weather Map
  • Weather Widgets
  • user-avatar
    Login

    Hourly Weather Shusha

    Today, 1 June, Monday

    Time Temperature Precipitation Wind Pressure Humidity
    00:00 +15°C° 0 mm 1 mps 658 mmHg 78%
    01:00 +14°C° 0 mm 1 mps 658 mmHg 78%
    02:00 +14°C° 0 mm 1 mps 658 mmHg 79%
    03:00 +14°C° 0 mm 1 mps 658 mmHg 80%
    04:00 +15°C° 0 mm 1 mps 658 mmHg 78%
    05:00 +15°C° 0 mm 1 mps 659 mmHg 76%
    06:00 +16°C° 0 mm 1 mps 659 mmHg 74%
    07:00 +19°C° 0 mm 1 mps 659 mmHg 70%
    08:00 +20°C° 0 mm 1 mps 659 mmHg 65%
    09:00 +21°C° 0 mm 2 mps 660 mmHg 61%
    10:00 +21°C° 0 mm 2 mps 660 mmHg 59%
    11:00 +23°C° 0 mm 2 mps 659 mmHg 56%
    12:00 +24°C° 0 mm 3 mps 659 mmHg 54%
    13:00 +24°C° 0 mm 3 mps 659 mmHg 54%
    14:00 +25°C° 0 mm 3 mps 658 mmHg 53%
    15:00 +25°C° 0 mm 2 mps 658 mmHg 52%
    16:00 +24°C° 0 mm 2 mps 658 mmHg 56%
    17:00 +24°C° 0 mm 2 mps 657 mmHg 60%
    18:00 +23°C° 0 mm 1 mps 657 mmHg 64%
    19:00 +21°C° 0 mm 1 mps 657 mmHg 67%
    20:00 +19°C° 0 mm 1 mps 657 mmHg 71%
    21:00 +18°C° 0 mm 1 mps 656 mmHg 75%
    22:00 +18°C° 0 mm 1 mps 656 mmHg 72%
    23:00 +18°C° 0 mm 1 mps 656 mmHg 69%

    Tomorrow, 2 June, Tuesday

    Time Temperature Precipitation Wind Pressure Humidity
    00:00 +16°C° 0 mm 2 mps 656 mmHg 67%
    01:00 +16°C° 0 mm 2 mps 656 mmHg 65%
    02:00 +16°C° 0 mm 2 mps 656 mmHg 63%
    03:00 +16°C° 0 mm 2 mps 656 mmHg 60%
    04:00 +17°C° 0 mm 2 mps 656 mmHg 59%
    05:00 +18°C° 0 mm 2 mps 656 mmHg 58%
    06:00 +20°C° 0 mm 1 mps 657 mmHg 57%
    07:00 +22°C° 0 mm 1 mps 657 mmHg 52%
    08:00 +23°C° 0 mm 1 mps 657 mmHg 47%
    09:00 +25°C° 0 mm 1 mps 658 mmHg 42%
    10:00 +26°C° 0 mm 2 mps 658 mmHg 40%
    11:00 +27°C° 0 mm 2 mps 658 mmHg 38%
    12:00 +28°C° 0 mm 3 mps 658 mmHg 36%
    13:00 +29°C° 0 mm 3 mps 657 mmHg 37%
    14:00 +29°C° 0 mm 3 mps 657 mmHg 37%
    15:00 +29°C° 0 mm 3 mps 657 mmHg 38%
    16:00 +28°C° 0.1 mm 3 mps 656 mmHg 45%
    17:00 +26°C° 0.1 mm 3 mps 656 mmHg 51%
    18:00 +25°C° 0.1 mm 3 mps 656 mmHg 58%
    19:00 +23°C° 0.2 mm 2 mps 656 mmHg 63%
    20:00 +19°C° 0.2 mm 2 mps 655 mmHg 68%
    21:00 +18°C° 0.2 mm 1 mps 655 mmHg 74%
    22:00 +17°C° 0 mm 2 mps 655 mmHg 73%
    23:00 +17°C° 0 mm 2 mps 655 mmHg 73%

    Day after tomorrow, 3 June, Wednesday

    Time Temperature Precipitation Wind Pressure Humidity
    00:00 +16°C° 0 mm 2 mps 654 mmHg 73%
    01:00 +16°C° 0 mm 2 mps 654 mmHg 72%
    02:00 +16°C° 0 mm 2 mps 654 mmHg 71%
    03:00 +16°C° 0 mm 2 mps 654 mmHg 70%
    04:00 +17°C° 0 mm 2 mps 654 mmHg 70%
    05:00 +19°C° 0 mm 1 mps 655 mmHg 69%
    06:00 +19°C° 0 mm 1 mps 655 mmHg 68%
    07:00 +21°C° 0 mm 1 mps 656 mmHg 62%
    08:00 +23°C° 0 mm 1 mps 656 mmHg 56%
    09:00 +25°C° 0 mm 2 mps 656 mmHg 50%
    10:00 +26°C° 0 mm 2 mps 656 mmHg 45%
    11:00 +27°C° 0 mm 3 mps 657 mmHg 40%
    12:00 +28°C° 0 mm 3 mps 657 mmHg 34%
    13:00 +29°C° 0 mm 3 mps 657 mmHg 33%
    14:00 +29°C° 0 mm 2 mps 656 mmHg 32%
    15:00 +29°C° 0 mm 2 mps 656 mmHg 32%
    16:00 +27°C° 0 mm 2 mps 656 mmHg 39%
    17:00 +26°C° 0 mm 2 mps 656 mmHg 46%
    18:00 +24°C° 0 mm 2 mps 655 mmHg 54%
    19:00 +21°C° 0 mm 2 mps 655 mmHg 55%
    20:00 +20°C° 0 mm 2 mps 655 mmHg 56%
    21:00 +18°C° 0 mm 2 mps 655 mmHg 57%
    22:00 +18°C° 0 mm 2 mps 655 mmHg 55%
    23:00 +18°C° 0 mm 2 mps 656 mmHg 54%

    4 June, Thursday

    Time Temperature Precipitation Wind Pressure Humidity
    00:00 +18°C° 0 mm 2 mps 656 mmHg 52%
    01:00 +17°C° 0 mm 2 mps 656 mmHg 52%
    02:00 +17°C° 0 mm 2 mps 656 mmHg 51%
    03:00 +16°C° 0 mm 2 mps 656 mmHg 50%
    04:00 +17°C° 0 mm 2 mps 657 mmHg 51%
    05:00 +17°C° 0 mm 2 mps 657 mmHg 53%
    06:00 +18°C° 0 mm 2 mps 658 mmHg 54%
    07:00 +19°C° 0 mm 2 mps 658 mmHg 51%
    08:00 +21°C° 0 mm 2 mps 659 mmHg 47%
    09:00 +24°C° 0 mm 2 mps 659 mmHg 43%
    10:00 +25°C° 0 mm 2 mps 660 mmHg 42%
    11:00 +26°C° 0 mm 3 mps 660 mmHg 40%
    12:00 +27°C° 0 mm 4 mps 660 mmHg 39%
    13:00 +27°C° 0 mm 4 mps 660 mmHg 38%
    14:00 +27°C° 0 mm 4 mps 659 mmHg 38%
    15:00 +27°C° 0 mm 4 mps 659 mmHg 37%
    16:00 +26°C° 0 mm 3 mps 659 mmHg 45%
    17:00 +24°C° 0 mm 3 mps 659 mmHg 52%
    18:00 +23°C° 0 mm 2 mps 658 mmHg 60%
    19:00 +20°C° 0 mm 2 mps 658 mmHg 65%
    20:00 +19°C° 0 mm 1 mps 658 mmHg 70%
    21:00 +16°C° 0 mm 1 mps 658 mmHg 75%
    22:00 +16°C° 0 mm 1 mps 658 mmHg 76%
    23:00 +15°C° 0 mm 1 mps 658 mmHg 77%

    5 June, Friday

    Time Temperature Precipitation Wind Pressure Humidity
    00:00 +15°C° 0 mm 1 mps 658 mmHg 78%
    01:00 +15°C° 0 mm 1 mps 658 mmHg 76%
    02:00 +14°C° 0 mm 1 mps 658 mmHg 74%
    03:00 +14°C° 0 mm 1 mps 659 mmHg 72%
    04:00 +15°C° 0 mm 1 mps 659 mmHg 72%
    05:00 +16°C° 0 mm 1 mps 660 mmHg 71%
    06:00 +16°C° 0 mm 1 mps 660 mmHg 71%
    07:00 +19°C° 0 mm 1 mps 661 mmHg 68%
    08:00 +19°C° 0 mm 2 mps 661 mmHg 65%
    09:00 +20°C° 0 mm 2 mps 661 mmHg 61%
    10:00 +21°C° 0.1 mm 2 mps 662 mmHg 59%
    11:00 +23°C° 0.1 mm 2 mps 662 mmHg 57%
    12:00 +24°C° 0.1 mm 3 mps 662 mmHg 55%
    13:00 +25°C° 0.2 mm 3 mps 662 mmHg 54%
    14:00 +25°C° 0.2 mm 2 mps 661 mmHg 53%
    15:00 +25°C° 0.2 mm 2 mps 661 mmHg 53%
    16:00 +24°C° 0.2 mm 2 mps 661 mmHg 56%
    17:00 +24°C° 0.2 mm 2 mps 661 mmHg 59%
    18:00 +23°C° 0.2 mm 2 mps 661 mmHg 62%
    19:00 +20°C° 0.2 mm 2 mps 661 mmHg 68%
    20:00 +18°C° 0.2 mm 2 mps 661 mmHg 73%
    21:00 +16°C° 0.2 mm 1 mps 661 mmHg 78%
    22:00 +16°C° 0.6 mm 1 mps 661 mmHg 81%
    23:00 +15°C° 0.6 mm 1 mps 662 mmHg 83%

    6 June, Saturday

    Time Temperature Precipitation Wind Pressure Humidity
    00:00 +14°C° 0.6 mm 1 mps 662 mmHg 86%
    01:00 +14°C° 0.3 mm 1 mps 662 mmHg 86%
    02:00 +14°C° 0.3 mm 1 mps 662 mmHg 86%
    03:00 +13°C° 0.3 mm 1 mps 662 mmHg 87%
    04:00 +14°C° 0.1 mm 1 mps 662 mmHg 83%
    05:00 +15°C° 0.1 mm 1 mps 663 mmHg 80%
    06:00 +15°C° 0.1 mm 1 mps 663 mmHg 77%
    07:00 +16°C° 0 mm 1 mps 663 mmHg 73%
    08:00 +18°C° 0 mm 1 mps 663 mmHg 70%
    09:00 +17°C° 0 mm 2 mps 664 mmHg 66%
    10:00 +18°C° 0 mm 2 mps 664 mmHg 64%
    11:00 +19°C° 0 mm 2 mps 664 mmHg 62%
    12:00 +20°C° 0 mm 3 mps 664 mmHg 60%
    13:00 +20°C° 0.1 mm 3 mps 663 mmHg 61%
    14:00 +20°C° 0.1 mm 3 mps 663 mmHg 62%
    15:00 +20°C° 0.1 mm 3 mps 663 mmHg 63%
    16:00 +19°C° 0.1 mm 3 mps 662 mmHg 66%
    17:00 +19°C° 0.1 mm 2 mps 662 mmHg 69%
    18:00 +18°C° 0.1 mm 2 mps 662 mmHg 72%
    19:00 +18°C° 0.2 mm 1 mps 662 mmHg 75%
    20:00 +16°C° 0.2 mm 1 mps 663 mmHg 78%
    21:00 +16°C° 0.2 mm 1 mps 663 mmHg 81%
    22:00 +15°C° 0.1 mm 1 mps 663 mmHg 81%
    23:00 +15°C° 0.1 mm 1 mps 662 mmHg 82%
    Show more